Location: Miss�
(46.9484°N, 0.1922°W)
Time: 07:09:14
(UTC+00:00)

SKYMED 2 - Pass Details

Date: 02 March 2021
Orbit: 621 x 623 km, 97.9° (Epoch: 12 April)

Event Time Altitude Azimuth Distance (km) Brightness Sun altitude
Rises 18:16:05 0° 12° (NNE) 2,915 6.8 -5.6°
Reaches altitude 10° 18:18:17 10° 12° (NNE) 2,004 6.0 -6.0°
Maximum altitude 18:22:39 86° 285° (WNW) 631 3.7 -6.7°
Drops below altitude 10° 18:26:59 10° 197° (SSW) 1,987 6.4 -7.5°
Sets 18:29:09 0° 196° (SSW) 2,888 7.2 -7.8°
